Location: Rumah Dana
(3.1167°N, 113.0167°E)
Time: 04:31:30
(UTC+00:00)

USA 238 DEB - Pass Details

Date: 20 January 2026
Orbit: 883 x 1328 km, 63.4° (Epoch: 10 January)

Event Time Altitude Azimuth Distance (km) Brightness Sun altitude
Rises 11:12:45 0° 337° (NNW) 4,237 6.9 -9.0°
Reaches altitude 10° 11:15:31 10° 338° (NNW) 3,302 6.3 -9.6°
Maximum altitude 11:23:41 89° 63° (ENE) 1,329 4.2 -11.6°
Drops below altitude 10° 11:31:55 10° 157° (SSE) 3,323 6.2 -13.5°
Sets 11:34:42 0° 157° (SSE) 4,264 6.8 -14.2°
